When you browse on this site, cookies collect data to enhance your experience and personalize the content and advertising you see.
Visit our Privacy Policy to learn more. By continuing to use the site, you agree to this use of cookies and data.
  • In Czech Republic
  • List of Countries
  • For 7 days
  • Water Temperature
  • Weather Map
  • Weather Widgets
  • user-avatar
    Login

    Hourly Weather La Chapelle-sur-Erdre

    Today, 28 May, Thursday

    Time Temperature Precipitation Wind Pressure Humidity
    00:00 +17°C° 0 mm 4 mps 770 mmHg 91%
    01:00 +15°C° 0 mm 4 mps 769 mmHg 91%
    02:00 +15°C° 0 mm 4 mps 769 mmHg 92%
    03:00 +14°C° 0 mm 5 mps 769 mmHg 92%
    04:00 +15°C° 0 mm 5 mps 769 mmHg 89%
    05:00 +15°C° 0 mm 5 mps 769 mmHg 86%
    06:00 +15°C° 0 mm 5 mps 769 mmHg 83%
    07:00 +16°C° 0 mm 5 mps 769 mmHg 78%
    08:00 +17°C° 0 mm 5 mps 769 mmHg 73%
    09:00 +20°C° 0 mm 5 mps 769 mmHg 67%
    10:00 +21°C° 0 mm 6 mps 768 mmHg 65%
    11:00 +22°C° 0 mm 6 mps 768 mmHg 63%
    12:00 +23°C° 0 mm 6 mps 767 mmHg 62%
    13:00 +24°C° 0 mm 6 mps 767 mmHg 61%
    14:00 +24°C° 0 mm 6 mps 767 mmHg 60%
    15:00 +24°C° 0 mm 6 mps 766 mmHg 60%
    16:00 +25°C° 0 mm 5 mps 766 mmHg 63%
    17:00 +23°C° 0 mm 5 mps 765 mmHg 67%
    18:00 +22°C° 0 mm 5 mps 765 mmHg 71%
    19:00 +20°C° 0 mm 5 mps 765 mmHg 73%
    20:00 +19°C° 0 mm 5 mps 766 mmHg 75%
    21:00 +16°C° 0 mm 5 mps 766 mmHg 77%
    22:00 +15°C° 0 mm 5 mps 766 mmHg 78%
    23:00 +14°C° 0 mm 5 mps 765 mmHg 78%

    Tomorrow, 29 May, Friday

    Time Temperature Precipitation Wind Pressure Humidity
    00:00 +14°C° 0 mm 5 mps 765 mmHg 78%
    01:00 +13°C° 0 mm 5 mps 765 mmHg 78%
    02:00 +12°C° 0 mm 5 mps 765 mmHg 78%
    03:00 +12°C° 0 mm 5 mps 765 mmHg 79%
    04:00 +12°C° 0 mm 5 mps 764 mmHg 77%
    05:00 +12°C° 0 mm 5 mps 764 mmHg 76%
    06:00 +11°C° 0 mm 6 mps 764 mmHg 75%
    07:00 +14°C° 0 mm 6 mps 764 mmHg 69%
    08:00 +16°C° 0 mm 6 mps 764 mmHg 64%
    09:00 +19°C° 0 mm 6 mps 764 mmHg 58%
    10:00 +20°C° 0 mm 6 mps 764 mmHg 55%
    11:00 +21°C° 0 mm 7 mps 763 mmHg 52%
    12:00 +22°C° 0 mm 7 mps 763 mmHg 49%
    13:00 +22°C° 0 mm 7 mps 763 mmHg 50%
    14:00 +23°C° 0 mm 7 mps 762 mmHg 50%
    15:00 +23°C° 0 mm 7 mps 762 mmHg 51%
    16:00 +22°C° 0 mm 6 mps 762 mmHg 56%
    17:00 +21°C° 0 mm 5 mps 762 mmHg 60%
    18:00 +20°C° 0 mm 5 mps 762 mmHg 65%
    19:00 +19°C° 0 mm 5 mps 762 mmHg 66%
    20:00 +16°C° 0 mm 5 mps 762 mmHg 68%
    21:00 +15°C° 0 mm 5 mps 762 mmHg 70%
    22:00 +14°C° 0 mm 5 mps 762 mmHg 73%
    23:00 +13°C° 0 mm 4 mps 762 mmHg 76%

    Day after tomorrow, 30 May, Saturday

    Time Temperature Precipitation Wind Pressure Humidity
    00:00 +12°C° 0 mm 4 mps 762 mmHg 79%
    01:00 +12°C° 0 mm 4 mps 762 mmHg 82%
    02:00 +11°C° 0 mm 4 mps 762 mmHg 85%
    03:00 +10°C° 0 mm 4 mps 762 mmHg 89%
    04:00 +11°C° 0 mm 4 mps 761 mmHg 86%
    05:00 +12°C° 0 mm 5 mps 761 mmHg 82%
    06:00 +12°C° 0 mm 5 mps 761 mmHg 79%
    07:00 +14°C° 0 mm 5 mps 761 mmHg 73%
    08:00 +16°C° 0 mm 6 mps 761 mmHg 67%
    09:00 +19°C° 0 mm 6 mps 761 mmHg 62%
    10:00 +20°C° 0 mm 6 mps 761 mmHg 58%
    11:00 +21°C° 0 mm 6 mps 761 mmHg 55%
    12:00 +23°C° 0 mm 6 mps 761 mmHg 51%
    13:00 +23°C° 0 mm 6 mps 761 mmHg 52%
    14:00 +23°C° 0 mm 6 mps 761 mmHg 52%
    15:00 +23°C° 0 mm 6 mps 760 mmHg 52%
    16:00 +23°C° 0 mm 5 mps 760 mmHg 57%
    17:00 +22°C° 0 mm 5 mps 760 mmHg 61%
    18:00 +21°C° 0 mm 5 mps 760 mmHg 66%
    19:00 +19°C° 0 mm 5 mps 760 mmHg 69%
    20:00 +17°C° 0 mm 5 mps 761 mmHg 72%
    21:00 +15°C° 0 mm 5 mps 761 mmHg 75%
    22:00 +14°C° 0 mm 4 mps 761 mmHg 77%
    23:00 +13°C° 0 mm 4 mps 761 mmHg 80%

    31 May, Sunday

    Time Temperature Precipitation Wind Pressure Humidity
    00:00 +12°C° 0 mm 4 mps 761 mmHg 82%
    01:00 +11°C° 0 mm 4 mps 761 mmHg 84%
    02:00 +11°C° 0 mm 4 mps 761 mmHg 86%
    03:00 +10°C° 0 mm 4 mps 761 mmHg 88%
    04:00 +10°C° 0 mm 5 mps 761 mmHg 84%
    05:00 +10°C° 0 mm 5 mps 761 mmHg 81%
    06:00 +12°C° 0 mm 5 mps 761 mmHg 77%
    07:00 +14°C° 0 mm 6 mps 761 mmHg 71%
    08:00 +16°C° 0 mm 6 mps 761 mmHg 66%
    09:00 +19°C° 0 mm 6 mps 761 mmHg 60%
    10:00 +20°C° 0 mm 6 mps 761 mmHg 58%
    11:00 +21°C° 0 mm 6 mps 761 mmHg 55%
    12:00 +22°C° 0 mm 7 mps 761 mmHg 52%
    13:00 +22°C° 0 mm 7 mps 761 mmHg 52%
    14:00 +22°C° 0 mm 6 mps 761 mmHg 53%
    15:00 +23°C° 0 mm 6 mps 760 mmHg 53%
    16:00 +22°C° 0 mm 6 mps 760 mmHg 58%
    17:00 +21°C° 0 mm 5 mps 760 mmHg 63%
    18:00 +21°C° 0 mm 4 mps 760 mmHg 68%
    19:00 +19°C° 0 mm 4 mps 760 mmHg 72%
    20:00 +18°C° 0 mm 4 mps 761 mmHg 76%
    21:00 +15°C° 0 mm 4 mps 761 mmHg 79%
    22:00 +14°C° 0 mm 4 mps 761 mmHg 83%
    23:00 +13°C° 0 mm 4 mps 761 mmHg 86%

    1 June, Monday

    Time Temperature Precipitation Wind Pressure Humidity
    00:00 +12°C° 0 mm 4 mps 761 mmHg 89%
    01:00 +12°C° 0 mm 4 mps 761 mmHg 90%
    02:00 +12°C° 0 mm 4 mps 761 mmHg 92%
    03:00 +11°C° 0 mm 4 mps 760 mmHg 93%
    04:00 +12°C° 0 mm 4 mps 760 mmHg 89%
    05:00 +12°C° 0 mm 4 mps 760 mmHg 85%
    06:00 +13°C° 0 mm 4 mps 760 mmHg 81%
    07:00 +15°C° 0 mm 4 mps 760 mmHg 74%
    08:00 +17°C° 0 mm 5 mps 760 mmHg 68%
    09:00 +20°C° 0 mm 5 mps 760 mmHg 61%
    10:00 +21°C° 0 mm 5 mps 760 mmHg 58%
    11:00 +22°C° 0 mm 5 mps 760 mmHg 55%
    12:00 +23°C° 0 mm 5 mps 760 mmHg 52%
    13:00 +23°C° 0 mm 5 mps 759 mmHg 52%
    14:00 +25°C° 0 mm 5 mps 759 mmHg 53%
    15:00 +25°C° 0 mm 5 mps 759 mmHg 53%
    16:00 +25°C° 0 mm 4 mps 759 mmHg 57%
    17:00 +23°C° 0 mm 4 mps 759 mmHg 62%
    18:00 +24°C° 0 mm 3 mps 759 mmHg 66%
    19:00 +21°C° 0 mm 3 mps 759 mmHg 72%
    20:00 +19°C° 0 mm 3 mps 759 mmHg 78%
    21:00 +17°C° 0 mm 3 mps 759 mmHg 84%
    22:00 +16°C° 0 mm 3 mps 759 mmHg 87%
    23:00 +14°C° 0 mm 3 mps 759 mmHg 91%

    2 June, Tuesday

    Time Temperature Precipitation Wind Pressure Humidity
    00:00 +13°C° 0 mm 3 mps 759 mmHg 94%
    01:00 +13°C° 0 mm 3 mps 759 mmHg 94%
    02:00 +13°C° 0 mm 3 mps 759 mmHg 95%
    03:00 +12°C° 0 mm 3 mps 758 mmHg 95%
    04:00 +13°C° 0 mm 3 mps 758 mmHg 93%
    05:00 +13°C° 0 mm 3 mps 759 mmHg 92%
    06:00 +14°C° 0 mm 3 mps 759 mmHg 90%
    07:00 +17°C° 0 mm 3 mps 759 mmHg 83%
    08:00 +19°C° 0 mm 3 mps 759 mmHg 76%
    09:00 +21°C° 0 mm 3 mps 759 mmHg 68%
    10:00 +22°C° 0 mm 3 mps 758 mmHg 64%
    11:00 +24°C° 0 mm 3 mps 758 mmHg 60%
    12:00 +25°C° 0 mm 3 mps 758 mmHg 56%
    13:00 +25°C° 0.2 mm 3 mps 757 mmHg 59%
    14:00 +23°C° 0.2 mm 4 mps 757 mmHg 61%
    15:00 +23°C° 0.2 mm 4 mps 757 mmHg 64%
    16:00 +22°C° 0.1 mm 5 mps 756 mmHg 67%
    17:00 +22°C° 0.1 mm 5 mps 756 mmHg 69%
    18:00 +21°C° 0.1 mm 5 mps 756 mmHg 72%
    19:00 +19°C° 0 mm 5 mps 756 mmHg 75%
    20:00 +18°C° 0 mm 4 mps 756 mmHg 79%
    21:00 +15°C° 0 mm 4 mps 757 mmHg 83%
    22:00 +14°C° 0 mm 4 mps 756 mmHg 84%
    23:00 +13°C° 0 mm 4 mps 756 mmHg 86%
    Show more